1507467600.47,23208,11.81,72944.3,-1.25,-4.13,-3.91,0,*50
1507467601.69,23209,11.81,72956.3,-1.27,-4.29,-4.09,0,*5C
1507467602.88,23210,11.81,72958.8,-1.25,-4.05,-3.79,0,*58
1507467604.1,23211,11.81,72944.8,-1.27,-4.29,-3.95,0,*57
1507467605.29,23212,11.81,72946.3,-1.29,-4.29,-3.95,0,*5A
1507467606.49,23213,11.81,72950.3,-1.29,-4.17,-3.91,0,*52
1507467607.71,23214,11.81,72948.3,-1.27,-4.09,-3.91,0,*54
1507467608.93,23215,11.81,72952.5,-1.29,-3.79,-3.63,0,*56
1507467610.17,23216,11.81,72956.5,-1.27,-3.95,-3.71,0,*5A
1507467611.37,23217,11.81,72958.8,-1.29,-4.05,-3.79,0,*53
1507467612.58,23218,11.81,72962.0,-1.27,-4.05,-3.83,0,*57
1507467613.81,23219,11.81,72960.8,-1.27,-4.17,-3.91,0,*56
1507467615.0,23220,11.81,72966.3,-1.29,-4.09,-3.91,0,*5D
1507467616.21,23221,11.81,72966.3,-1.29,-4.09,-3.71,0,*52
1507467617.4,23222,11.81,72968.8,-1.29,-4.09,-3.83,0,*5C
1507467618.62,23223,11.81,72968.3,-1.29,-3.95,-3.71,0,*52
1507467619.81,23224,11.81,72966.8,-1.29,-4.05,-3.79,0,*53
1507467621.03,23225,11.81,72964.5,-1.29,-3.95,-3.71,0,*54
1507467622.28,23226,11.81,72968.5,-1.27,-3.79,-3.63,0,*58
1507467623.52,23227,11.81,72968.5,-1.27,-3.91,-3.67,0,*5B
1507467624.77,23228,11.81,72970.8,-1.27,-3.91,-3.71,0,*53
1507467625.96,23229,11.81,72970.3,-1.29,-4.09,-3.83,0,*57
1507467627.21,23230,11.81,72970.5,-1.27,-3.95,-3.67,0,*59
1507467628.45,23231,11.81,72976.5,-1.27,-3.91,-3.67,0,*5C
1507467629.7,23232,11.81,72974.0,-1.27,-3.91,-3.63,0,*5B
1507467630.92,23233,11.81,72976.3,-1.29,-3.79,-3.55,0,*57
1507467632.17,23234,11.81,72972.3,-1.27,-3.83,-3.63,0,*5E
1507467633.41,23235,11.81,72970.8,-1.27,-3.79,-3.55,0,*5F
1507467634.66,23236,11.81,72964.3,-1.27,-3.83,-3.55,0,*59
1507467635.92,23237,11.81,72966.3,-1.27,-3.63,-3.55,0,*56
1507467637.18,23238,11.81,72964.3,-1.27,-3.71,-3.63,0,*5F
1507467638.43,23239,11.81,72964.3,-1.27,-3.63,-3.31,0,*5A
1507467639.68,23240,11.81,72962.8,-1.27,-3.51,-3.27,0,*52
1507467640.92,23241,11.81,72962.5,-1.27,-3.55,-3.27,0,*57
1507467642.14,23242,11.81,72960.0,-1.25,-3.47,-3.11,0,*50
1507467643.36,23243,11.81,72962.3,-1.25,-3.59,-3.35,0,*58
1507467644.58,23244,11.81,72966.8,-1.25,-3.51,-3.27,0,*54
1507467645.82,23245,11.81,72964.0,-1.25,-3.63,-3.51,0,*55
1507467647.04,23246,11.81,72966.3,-1.25,-3.79,-3.59,0,*55
1507467648.28,23247,11.81,72966.3,-1.25,-3.67,-3.47,0,*54
1507467649.49,23248,11.81,72970.5,-1.25,-3.75,-3.51,0,*5F
1507467650.72,23249,11.81,72970.5,-1.25,-3.75,-3.59,0,*56
1507467651.94,23250,11.81,72968.8,-1.25,-3.79,-3.59,0,*52
1507467653.16,23251,11.81,72966.5,-1.25,-3.75,-3.51,0,*57
1507467654.38,23252,11.81,72970.5,-1.25,-3.91,-3.63,0,*5F
1507467655.61,23253,11.81,72964.5,-1.25,-3.59,-3.47,0,*5C
1507467656.83,23254,11.81,72966.5,-1.25,-3.59,-3.39,0,*52
1507467658.1,23255,11.81,72966.8,-1.23,-3.67,-3.51,0,*56
1507467659.35,23256,11.81,72970.8,-1.23,-3.51,-3.27,0,*51
1507467660.61,23257,11.81,72968.8,-1.23,-3.63,-3.47,0,*57
1507467661.84,23258,11.81,72968.8,-1.25,-3.79,-3.59,0,*5A
1507467663.06,23259,11.81,72968.5,-1.25,-3.75,-3.59,0,*57
1507467664.32,23260,11.81,72968.3,-1.23,-3.67,-3.51,0,*50
1507467665.59,23261,11.81,72970.0,-1.23,-3.63,-3.47,0,*52
1507467666.84,23262,11.81,72970.8,-1.23,-3.59,-3.35,0,*5D
1507467668.09,23263,11.81,72966.5,-1.23,-3.59,-3.35,0,*5C
1507467669.33,23264,11.81,72968.8,-1.23,-3.59,-3.35,0,*5B
1507467670.6,23265,11.81,72970.5,-1.23,-3.67,-3.51,0,*55
1507467671.87,23266,11.81,72968.8,-1.23,-3.67,-3.59,0,*5E
1507467673.12,23267,11.75,72966.3,-1.23,-3.75,-3.51,0,*54
1507467674.38,23268,11.81,72966.0,-1.23,-3.63,-3.51,0,*5C
1507467675.65,23269,11.81,72964.3,-1.23,-3.63,-3.47,0,*5A
1507467676.9,23270,11.81,72966.0,-1.23,-3.59,-3.35,0,*5E
1507467678.11,23271,11.81,72968.5,-1.21,-3.55,-3.31,0,*55
1507467679.33,23272,11.81,72966.3,-1.21,-3.55,-3.35,0,*52
1507467680.55,23273,11.81,72962.3,-1.21,-3.55,-3.35,0,*53
1507467681.79,23274,11.75,72960.3,-1.19,-3.51,-3.19,0,*55
1507467683.03,23275,11.81,72962.5,-1.19,-3.55,-3.27,0,*5D
1507467684.28,23276,11.81,72964.5,-1.19,-3.51,-3.27,0,*5A
1507467685.52,23277,11.75,72962.3,-1.19,-3.51,-3.31,0,*5C
1507467686.76,23278,11.81,72966.3,-1.19,-3.67,-3.39,0,*5E
1507467688.0,23279,11.75,72964.3,-1.21,-3.63,-3.47,0,*59
1507467689.23,23280,11.75,72964.5,-1.21,-3.71,-3.47,0,*5C
1507467690.45,23281,11.81,72964.8,-1.21,-3.59,-3.35,0,*52
1507467691.69,23282,11.81,72962.5,-1.19,-3.55,-3.39,0,*5A
1507467692.91,23283,11.81,72962.8,-1.21,-3.75,-3.55,0,*58
1507467694.15,23284,11.75,72960.0,-1.19,-3.55,-3.39,0,*5C
1507467695.39,23285,11.81,72958.3,-1.21,-3.59,-3.43,0,*57
1507467696.64,23286,11.81,72960.0,-1.21,-3.63,-3.43,0,*5D
1507467697.83,23287,11.81,72958.0,-1.21,-3.35,-3.11,0,*58
1507467699.07,23288,11.81,72960.3,-1.19,-3.43,-3.19,0,*55
1507467700.29,23289,11.81,72962.5,-1.19,-3.27,-3.03,0,*5D
1507467701.5,23290,11.81,72966.3,-1.21,-3.47,-3.23,0,*5A
1507467702.77,23291,11.81,72960.3,-1.19,-3.55,-3.43,0,*55
1507467703.98,23292,11.81,72970.5,-1.17,-3.51,-3.31,0,*59
1507467705.2,23293,11.81,72970.5,-1.17,-3.51,-3.39,0,*50
1507467706.42,23294,11.75,72966.3,-1.19,-3.27,-3.07,0,*55
1507467707.61,23295,11.81,72970.8,-1.17,-3.15,-2.91,0,*55
1507467708.83,23296,11.81,72974.0,-1.17,-2.95,-2.75,0,*55
1507467710.04,23297,11.81,72972.8,-1.17,-2.91,-2.67,0,*53
1507467711.26,23298,11.81,72970.0,-1.17,-2.91,-2.67,0,*5C
1507467712.49,23299,11.81,72970.5,-1.15,-2.79,-2.67,0,*59
1507467713.72,23300,11.81,72972.0,-1.15,-2.79,-2.63,0,*5C
1507467714.97,23301,11.81,72974.0,-1.15,-2.75,-2.63,0,*51
1507467716.2,23302,11.81,72974.5,-1.15,-2.79,-2.59,0,*57
1507467717.43,23303,11.81,72972.0,-1.15,-2.79,-2.63,0,*5F
1507467718.65,23304,11.81,72974.8,-1.13,-3.03,-2.87,0,*58
1507467719.85,23305,11.81,72976.0,-1.11,-3.07,-2.87,0,*5F
1507467721.07,23306,11.75,72972.0,-1.13,-3.15,-2.87,0,*5D
1507467722.3,23307,11.75,72972.8,-1.13,-3.35,-3.03,0,*53
1507467723.53,23308,11.81,72976.3,-1.13,-3.27,-2.99,0,*5D
1507467724.74,23309,11.75,72976.8,-1.11,-3.27,-2.99,0,*5E
1507467725.99,23310,11.81,72978.5,-1.13,-3.47,-3.15,0,*57
1507467727.21,23311,11.81,72980.3,-1.13,-3.39,-3.27,0,*5E
1507467728.47,23312,11.81,72980.8,-1.13,-3.51,-3.35,0,*50
1507467729.68,23313,11.81,72980.8,-1.11,-3.43,-3.19,0,*5E
1507467730.91,23314,11.75,72980.0,-1.13,-3.39,-3.27,0,*5B
1507467732.16,23315,11.75,72978.3,-1.13,-3.67,-3.39,0,*5E
1507467733.41,23316,11.81,72984.3,-1.13,-3.55,-3.39,0,*5C
1507467734.66,23317,11.81,72982.0,-1.13,-3.51,-3.39,0,*59
1507467735.91,23318,11.81,72972.8,-1.13,-3.75,-3.47,0,*59
1507467737.16,23319,11.81,72974.5,-1.13,-3.55,-3.39,0,*53
1507467738.4,23320,11.81,72964.3,-1.13,-3.55,-3.35,0,*55
1507467739.63,23321,11.81,72966.0,-1.13,-3.39,-3.15,0,*5C
1507467740.88,23322,11.81,72960.3,-1.13,-3.51,-3.27,0,*50
1507467742.1,23323,11.75,72952.8,-1.13,-3.35,-3.15,0,*52
1507467743.3,23324,11.81,72958.5,-1.11,-3.35,-3.19,0,*5B
1507467744.51,23325,11.75,72956.3,-1.11,-3.35,-2.99,0,*53
1507467745.71,23326,11.81,72968.0,-1.11,-3.35,-3.07,0,*56
1507467746.91,23327,11.81,72968.8,-1.11,-3.35,-3.11,0,*50
1507467748.13,23328,11.75,72964.5,-1.11,-3.59,-3.35,0,*53
1507467749.38,23329,11.75,72966.5,-1.13,-3.55,-3.27,0,*5F
1507467750.6,23330,11.81,72964.8,-1.11,-3.43,-3.19,0,*5F
1507467751.82,23331,11.81,72964.8,-1.11,-3.51,-3.35,0,*53
1507467753.04,23332,11.81,72964.0,-1.11,-3.47,-3.23,0,*50
1507467754.24,23333,11.75,72962.5,-1.11,-3.35,-3.19,0,*5D
1507467755.44,23334,11.75,72962.0,-1.07,-3.31,-3.19,0,*59
1507467756.64,23335,11.75,72956.3,-1.07,-3.31,-3.07,0,*57
1507467757.84,23336,11.75,72956.5,-1.11,-3.35,-3.07,0,*57
1507467759.04,23337,11.81,72958.3,-1.11,-3.19,-2.87,0,*51
1507467760.24,23338,11.75,72954.3,-1.11,-3.11,-2.83,0,*52
1507467761.43,23339,11.75,72954.5,-1.11,-3.23,-2.87,0,*56
1507467762.63,23340,11.75,72952.0,-1.07,-3.19,-2.79,0,*57
1507467763.86,23341,11.75,72952.3,-1.05,-3.15,-2.95,0,*5A
1507467765.06,23342,11.81,72958.3,-1.07,-3.19,-2.87,0,*54
1507467766.26,23343,11.81,72956.3,-1.07,-3.19,-2.95,0,*56
1507467767.48,23344,11.81,72956.8,-1.05,-3.39,-3.19,0,*54
1507467768.7,23345,11.75,72954.8,-1.05,-3.39,-3.19,0,*55
1507467769.91,23346,11.75,72954.8,-1.05,-3.19,-2.91,0,*55
1507467771.12,23347,11.75,72952.8,-1.07,-3.35,-3.07,0,*56
1507467772.34,23348,11.81,72958.5,-1.05,-3.31,-3.19,0,*50
1507467773.58,23349,11.75,72960.3,-1.07,-3.71,-3.47,0,*5C
1507467774.8,23350,11.75,72962.0,-1.03,-3.55,-3.39,0,*5F
1507467776.04,23351,11.81,72964.8,-1.05,-3.43,-3.19,0,*5D
1507467777.29,23352,11.75,72966.5,-1.05,-3.47,-3.31,0,*50
1507467778.54,23353,11.81,72968.5,-1.05,-3.47,-3.27,0,*56
1507467779.77,23354,11.75,72968.3,-1.07,-3.75,-3.51,0,*53
1507467781.03,23355,11.81,72968.3,-1.05,-3.71,-3.43,0,*57
1507467782.27,23356,11.75,72964.5,-1.07,-3.75,-3.59,0,*59
1507467783.53,23357,11.75,72966.3,-1.05,-3.67,-3.47,0,*56
1507467784.76,23358,11.81,72968.8,-1.07,-4.01,-3.75,0,*5D
1507467785.98,23359,11.75,72968.8,-1.05,-4.05,-3.79,0,*56
1507467787.21,23360,11.75,72964.8,-1.07,-3.95,-3.71,0,*58
1507467788.43,23361,11.75,72970.3,-1.11,-3.87,-3.63,0,*5E
1507467789.65,23362,11.75,72962.0,-1.11,-3.95,-3.71,0,*5D
1507467790.89,23363,11.75,72962.8,-1.13,-3.87,-3.55,0,*5B
1507467792.11,23364,11.75,72966.3,-1.11,-3.95,-3.63,0,*58
1507467793.34,23365,11.81,72966.0,-1.11,-3.75,-3.51,0,*56
1507467794.57,23366,11.75,72956.5,-1.11,-3.83,-3.59,0,*54
1507467795.83,23367,11.81,72958.3,-1.13,-3.67,-3.47,0,*52
1507467797.05,23368,11.75,72950.5,-1.11,-3.95,-3.71,0,*57
1507467798.3,23369,11.75,72944.0,-1.13,-3.87,-3.55,0,*51
1507467799.54,23370,11.75,72942.8,-1.11,-3.63,-3.43,0,*56
1507467800.79,23371,11.81,72950.5,-1.11,-3.59,-3.43,0,*5E
1507467802.05,23372,11.75,72948.5,-1.13,-4.01,-3.75,0,*50
1507467803.27,23373,11.75,72950.3,-1.13,-4.41,-4.13,0,*52
1507467804.5,23374,11.75,72948.3,-1.13,-4.05,-3.75,0,*52
1507467805.73,23375,11.75,72950.5,-1.15,-4.01,-3.75,0,*51
1507467806.93,23376,11.75,72950.0,-1.15,-4.45,-4.25,0,*50
1507467808.12,23377,11.75,72944.8,-1.17,-4.21,-3.95,0,*5D
1507467809.31,23378,11.81,72944.3,-1.17,-4.05,-3.79,0,*56
1507467810.53,23379,11.75,72950.0,-1.17,-3.83,-3.59,0,*5C
1507467811.77,23380,11.75,72950.3,-1.17,-3.71,-3.55,0,*5B
1507467813.03,23381,11.75,72944.0,-1.19,-3.67,-3.55,0,*53
1507467814.23,23382,11.81,72946.3,-1.19,-4.45,-4.17,0,*56
1507467815.44,23383,11.75,72946.8,-1.19,-4.41,-4.17,0,*53
1507467816.69,23384,11.75,72950.5,-1.19,-3.83,-3.59,0,*50
1507467817.88,23385,11.75,72950.3,-1.17,-4.29,-4.17,0,*55
1507467819.1,23386,11.75,72954.3,-1.19,-3.95,-3.79,0,*57
1507467820.32,23387,11.75,72956.3,-1.21,-3.83,-3.71,0,*52
1507467821.56,23388,11.75,72960.0,-1.19,-3.91,-3.67,0,*52
1507467822.81,23389,11.75,72964.3,-1.23,-3.79,-3.63,0,*58
1507467824.03,23390,11.75,72964.5,-1.21,-3.83,-3.71,0,*54
1507467825.27,23391,11.75,72970.3,-1.21,-3.59,-3.55,0,*54
1507467826.48,23392,11.75,72968.5,-1.21,-3.55,-3.31,0,*59
1507467827.7,23393,11.75,72974.0,-1.21,-3.55,-3.35,0,*5C
1507467828.95,23394,11.75,72966.3,-1.23,-3.75,-3.51,0,*59
1507467830.18,23395,11.75,72970.8,-1.21,-3.71,-3.55,0,*5A
1507467831.41,23396,11.75,72968.5,-1.21,-4.01,-3.75,0,*5B
1507467832.68,23397,11.75,72970.5,-1.23,-3.67,-3.59,0,*51
1507467833.89,23398,11.75,72968.3,-1.21,-3.47,-3.19,0,*5A
1507467835.09,23399,11.75,72970.5,-1.21,-3.31,-3.07,0,*55
1507467836.31,23400,11.75,72970.0,-1.23,-3.35,-3.11,0,*53
1507467837.56,23401,11.75,72970.5,-1.23,-3.47,-3.27,0,*52
1507467838.8,23402,11.75,72966.3,-1.21,-3.55,-3.47,0,*56
1507467840.01,23403,11.75,72970.5,-1.21,-3.43,-3.23,0,*52
1507467841.23,23404,11.75,72974.8,-1.19,-3.27,-3.03,0,*5E
1507467842.45,23405,11.75,72976.0,-1.19,-3.27,-3.07,0,*5B
1507467843.67,23406,11.75,72976.0,-1.19,-3.31,-3.19,0,*50
1507467844.86,23407,11.75,72972.0,-1.21,-3.31,-3.19,0,*5A
1507467846.1,23408,11.75,72968.0,-1.19,-3.43,-3.27,0,*56
1507467847.34,23409,11.75,72974.0,-1.19,-3.43,-3.19,0,*5A
1507467848.61,23410,11.75,72970.3,-1.19,-3.59,-3.43,0,*56
1507467849.85,23411,11.75,72970.3,-1.19,-3.43,-3.27,0,*5E
1507467851.09,23412,11.75,72970.8,-1.19,-3.43,-3.27,0,*5D
1507467852.31,23413,11.75,72966.8,-1.19,-3.39,-3.15,0,*50
1507467853.54,23414,11.75,72968.5,-1.21,-3.83,-3.59,0,*55
1507467854.76,23415,11.75,72970.8,-1.21,-3.83,-3.59,0,*54
1507467855.98,23416,11.75,72974.8,-1.19,-3.19,-3.03,0,*50
1507467857.17,23417,11.75,72972.8,-1.17,-3.39,-3.19,0,*56
1507467858.4,23418,11.75,72974.3,-1.17,-3.67,-3.43,0,*5D
1507467859.59,23419,11.75,72972.5,-1.17,-3.39,-3.19,0,*58
1507467860.83,23420,11.75,72970.0,-1.19,-3.43,-3.31,0,*5B
1507467862.09,23421,11.75,72972.0,-1.19,-3.55,-3.43,0,*58
1507467863.33,23422,11.75,72972.5,-1.17,-3.55,-3.43,0,*55
1507467864.54,23423,11.75,72968.0,-1.17,-3.51,-3.31,0,*55
1507467865.73,23424,11.75,72968.0,-1.17,-3.31,-3.15,0,*52
1507467866.95,23425,11.75,72970.3,-1.19,-3.27,-2.95,0,*53
1507467868.22,23426,11.75,72970.0,-1.19,-3.55,-3.43,0,*5F
1507467869.45,23427,11.75,72968.0,-1.19,-3.55,-3.39,0,*53
1507467870.7,23428,11.75,72974.8,-1.19,-3.83,-3.67,0,*5C
1507467871.95,23429,11.75,72972.5,-1.19,-3.91,-3.59,0,*53
1507467873.21,23430,11.75,72964.0,-1.19,-3.71,-3.43,0,*5E
1507467874.42,23431,11.75,72966.3,-1.17,-3.67,-3.39,0,*5B
1507467875.65,23432,11.75,72968.5,-1.15,-3.79,-3.55,0,*5F
1507467876.88,23433,11.75,72966.0,-1.17,-3.67,-3.51,0,*57
1507467878.13,23434,11.75,72966.0,-1.19,-3.91,-3.59,0,*5F
1507467879.4,23435,11.75,72958.0,-1.19,-3.71,-3.51,0,*58
1507467880.59,23436,11.75,72962.3,-1.21,-4.09,-3.87,0,*53
1507467881.78,23437,11.75,72958.8,-1.17,-4.05,-3.79,0,*5A
1507467883.03,23438,11.75,72950.0,-1.19,-3.83,-3.59,0,*50
1507467884.29,23439,11.75,72958.8,-1.19,-3.59,-3.43,0,*5D
1507467885.53,23440,11.75,72956.8,-1.19,-3.55,-3.39,0,*52
1507467886.75,23441,11.75,72958.8,-1.21,-3.55,-3.35,0,*54
1507467888.01,23442,11.75,72958.8,-1.19,-3.67,-3.55,0,*5B
1507467889.25,23443,11.75,72960.0,-1.19,-3.79,-3.55,0,*55
1507467890.44,23444,11.75,72960.8,-1.21,-4.13,-3.95,0,*5E
1507467891.67,23445,11.75,72962.8,-1.21,-4.01,-3.75,0,*52
1507467892.93,23446,11.75,72958.8,-1.19,-3.71,-3.51,0,*5C
1507467894.2,23447,11.75,72960.8,-1.19,-3.59,-3.43,0,*54
1507467895.46,23448,11.75,72964.5,-1.19,-3.55,-3.43,0,*57
1507467896.68,23449,11.75,72948.0,-1.21,-3.75,-3.47,0,*5B
1507467897.93,23450,11.75,72952.0,-1.19,-3.71,-3.55,0,*5F
1507467899.13,23451,11.75,72946.5,-1.21,-3.95,-3.83,0,*54
1507467900.32,23452,11.75,72948.3,-1.21,-4.09,-3.95,0,*52
1507467901.52,23453,11.75,72958.3,-1.21,-4.33,-4.13,0,*53
1507467902.74,23454,11.75,72960.8,-1.19,-4.21,-3.95,0,*55
1507467903.93,23455,11.75,72964.3,-1.21,-4.09,-3.87,0,*56
1507467905.16,23456,11.75,72962.3,-1.21,-4.21,-4.01,0,*56
1507467906.38,23457,11.75,72962.8,-1.25,-4.17,-4.01,0,*56
1507467907.59,23458,11.75,72962.0,-1.25,-4.17,-4.01,0,*59
1507467908.84,23459,11.75,72960.8,-1.23,-4.01,-3.87,0,*50
1507467910.06,23460,11.75,72964.0,-1.23,-4.05,-3.87,0,*5E
1507467911.25,23461,11.75,72964.5,-1.25,-3.87,-3.75,0,*59
1507467912.47,23462,11.75,72964.0,-1.23,-4.05,-3.79,0,*5D
1507467913.68,23463,11.75,72966.0,-1.25,-3.87,-3.67,0,*58
1507467914.95,23464,11.75,72962.0,-1.23,-4.01,-3.67,0,*50
1507467916.19,23465,11.75,72964.5,-1.25,-3.63,-3.47,0,*56
1507467917.44,23466,11.75,72962.3,-1.23,-3.75,-3.51,0,*53
1507467918.67,23467,11.75,72962.5,-1.25,-3.67,-3.51,0,*57
1507467919.89,23468,11.75,72964.5,-1.25,-3.79,-3.63,0,*56
1507467921.13,23469,11.75,72964.3,-1.23,-3.47,-3.23,0,*58
1507467922.37,23470,11.75,72972.8,-1.23,-3.47,-3.23,0,*50
1507467923.62,23471,11.75,72970.5,-1.23,-3.51,-3.39,0,*5D
1507467924.89,23472,11.75,72970.0,-1.23,-3.59,-3.51,0,*58
1507467926.15,23473,11.75,72974.3,-1.23,-3.63,-3.51,0,*50
1507467927.41,23474,11.75,72970.5,-1.23,-3.75,-3.59,0,*58
1507467928.65,23475,11.75,72970.8,-1.23,-3.75,-3.63,0,*50
1507467929.9,23476,11.75,72968.8,-1.23,-3.75,-3.63,0,*53
1507467931.14,23477,11.75,72970.3,-1.25,-3.67,-3.59,0,*5E
1507467932.4,23478,11.75,72970.5,-1.23,-3.59,-3.47,0,*55
1507467933.65,23479,11.75,72966.8,-1.23,-3.59,-3.35,0,*51
1507467934.9,23480,11.75,72968.8,-1.23,-3.51,-3.39,0,*53
1507467936.11,23481,11.75,72970.8,-1.21,-3.43,-3.31,0,*5B
1507467937.38,23482,11.75,72966.8,-1.23,-3.67,-3.47,0,*5D
1507467938.57,23483,11.75,72968.5,-1.21,-3.31,-3.19,0,*56
1507467939.79,23484,11.75,72962.5,-1.21,-3.47,-3.19,0,*50
1507467940.98,23485,11.75,72964.5,-1.21,-3.35,-3.19,0,*54
1507467942.17,23486,11.75,72964.8,-1.21,-3.35,-3.11,0,*5F
1507467943.41,23487,11.75,72966.0,-1.19,-3.43,-3.19,0,*5C
1507467944.63,23488,11.75,72964.5,-1.21,-3.43,-3.11,0,*50
1507467945.85,23489,11.75,72964.3,-1.19,-3.39,-3.07,0,*50
1507467947.04,23490,11.75,72960.8,-1.17,-3.31,-3.03,0,*5A
1507467948.28,23491,11.75,72966.5,-1.19,-3.51,-3.19,0,*58
1507467949.53,23492,11.75,72960.5,-1.19,-3.51,-3.39,0,*59
1507467950.76,23493,11.75,72964.3,-1.19,-3.55,-3.19,0,*5E
1507467951.98,23494,11.75,72968.3,-1.21,-3.55,-3.31,0,*58
1507467953.19,23495,11.75,72964.8,-1.19,-3.39,-3.15,0,*5E
1507467954.41,23496,11.75,72970.8,-1.19,-3.27,-3.07,0,*51
1507467955.63,23497,11.75,72968.0,-1.19,-3.19,-2.91,0,*53
1507467956.87,23498,11.75,72968.3,-1.19,-3.43,-3.39,0,*50
1507467958.1,23499,11.75,72970.0,-1.19,-3.43,-3.19,0,*53
1507467959.37,23500,11.75,72970.0,-1.19,-3.67,-3.43,0,*5B
1507467960.58,23501,11.75,72966.0,-1.17,-3.55,-3.27,0,*57
1507467961.82,23502,11.75,72962.8,-1.19,-3.51,-3.31,0,*59
1507467963.06,23503,11.75,72964.5,-1.19,-3.55,-3.39,0,*54
1507467964.32,23504,11.75,72966.8,-1.19,-3.71,-3.51,0,*5B
1507467965.56,23505,11.75,72970.8,-1.19,-3.55,-3.31,0,*5A
1507467966.81,23506,11.75,72968.8,-1.19,-3.51,-3.27,0,*5A
1507467968.06,23507,11.75,72964.5,-1.19,-3.51,-3.27,0,*5B
1507467969.29,23508,11.75,72968.3,-1.19,-3.43,-3.15,0,*56
1507467970.51,23509,11.75,72968.0,-1.19,-3.31,-3.07,0,*51
1507467971.73,23510,11.75,72960.8,-1.17,-3.51,-3.39,0,*5C
1507467972.93,23511,11.75,72962.0,-1.15,-3.39,-3.23,0,*5A
1507467974.12,23512,11.75,72962.3,-1.17,-3.39,-3.27,0,*5F
1507467975.34,23513,11.75,72962.0,-1.17,-3.43,-3.27,0,*53
1507467976.55,23514,11.75,72960.8,-1.17,-3.43,-3.19,0,*59
1507467977.76,23515,11.75,72960.0,-1.17,-3.43,-3.15,0,*54
1507467978.96,23516,11.75,72954.8,-1.15,-3.39,-3.15,0,*58
1507467980.15,23517,11.75,72958.0,-1.17,-3.35,-3.11,0,*53
1507467981.35,23518,11.75,72956.8,-1.17,-3.27,-3.03,0,*5C
1507467982.55,23519,11.75,72956.0,-1.15,-3.27,-3.03,0,*5F
1507467983.78,23520,11.75,72954.3,-1.13,-3.27,-2.99,0,*51
1507467985.01,23521,11.75,72956.5,-1.13,-3.39,-3.03,0,*5D
1507467986.23,23522,11.75,72956.5,-1.15,-3.55,-3.23,0,*50
1507467987.46,23523,11.75,72954.3,-1.17,-3.67,-3.43,0,*54
1507467988.69,23524,11.75,72954.3,-1.15,-3.51,-3.35,0,*55
1507467989.91,23525,11.75,72954.3,-1.17,-3.59,-3.39,0,*52
1507467991.14,23526,11.75,72952.0,-1.15,-3.75,-3.51,0,*53
1507467992.36,23527,11.75,72952.3,-1.15,-3.51,-3.23,0,*51
1507467993.57,23528,11.75,72952.8,-1.17,-3.51,-3.19,0,*55
1507467994.8,23529,11.75,72952.8,-1.15,-3.51,-3.27,0,*5B
1507467996.03,23530,11.75,72950.3,-1.15,-3.55,-3.35,0,*54
1507467997.25,23531,11.75,72956.3,-1.15,-3.47,-3.15,0,*54
1507467998.45,23532,11.75,72954.5,-1.15,-3.23,-2.91,0,*58
1507467999.65,23533,11.75,72952.8,-1.15,-3.27,-2.99,0,*55
1507468000.86,23534,11.75,72956.3,-1.15,-3.35,-3.11,0,*50
1507468002.06,23535,11.75,72956.5,-1.15,-3.35,-3.11,0,*51
1507468003.27,23536,11.75,72962.5,-1.15,-3.27,-2.99,0,*50
1507468004.49,23537,11.75,72964.0,-1.15,-3.51,-3.23,0,*50
1507468005.72,23538,11.75,72962.5,-1.13,-3.27,-3.03,0,*5A
1507468006.94,23539,11.75,72966.3,-1.13,-3.27,-3.03,0,*5B
1507468008.17,23540,11.75,72964.8,-1.13,-3.15,-2.91,0,*5E
1507468009.39,23541,11.75,72968.3,-1.13,-3.39,-3.15,0,*5C
1507468010.62,23542,11.75,72970.5,-1.13,-3.39,-3.27,0,*5E
1507468011.85,23543,11.75,72970.0,-1.13,-3.35,-3.11,0,*56
1507468013.07,23544,11.75,72972.0,-1.13,-3.39,-3.11,0,*5D
1507468014.3,23545,11.75,72970.8,-1.13,-3.23,-2.99,0,*56
1507468015.52,23546,11.75,72970.3,-1.13,-3.15,-2.91,0,*58
1507468016.77,23547,11.75,72974.0,-1.13,-2.99,-2.75,0,*56
1507468017.97,23548,11.75,72974.0,-1.11,-2.99,-2.87,0,*56
1507468019.19,23549,11.75,72974.8,-1.11,-2.99,-2.75,0,*5A
1507468020.41,23550,11.75,72978.0,-1.13,-3.03,-2.79,0,*5E
1507468021.61,23551,11.75,72978.8,-1.11,-3.07,-2.83,0,*5C
1507468022.81,23552,11.75,72976.3,-1.11,-2.99,-2.83,0,*59
1507468024.04,23553,11.75,72972.3,-1.11,-2.95,-2.75,0,*5D
1507468025.24,23554,11.75,72974.5,-1.11,-3.19,-2.87,0,*52
1507468026.43,23555,11.75,72976.0,-1.11,-3.23,-3.07,0,*53
1507468027.66,23556,11.75,72972.0,-1.07,-2.87,-2.71,0,*58
1507468028.88,23557,11.75,72976.5,-1.05,-3.19,-2.95,0,*57
1507468030.08,23558,11.75,72976.3,-1.07,-3.11,-2.87,0,*51
1507468031.29,23559,11.75,72976.5,-1.07,-3.19,-2.95,0,*5B
1507468032.51,23560,11.75,72976.0,-1.05,-3.15,-2.83,0,*58
1507468033.71,23561,11.75,72972.5,-1.07,-3.35,-3.19,0,*5B
1507468034.91,23562,11.75,72974.8,-1.07,-3.11,-2.83,0,*5C
1507468036.14,23563,11.75,72970.0,-1.07,-2.95,-2.71,0,*5D
1507468037.37,23564,11.75,72974.3,-1.07,-3.07,-2.75,0,*54
1507468038.6,23565,11.75,72974.5,-1.07,-2.99,-2.71,0,*57
1507468039.8,23566,11.75,72972.0,-1.07,-3.31,-3.07,0,*57
1507468041.0,23567,11.75,72972.8,-1.07,-3.07,-2.83,0,*5E
1507468042.23,23568,11.75,72972.0,-1.05,-3.27,-3.03,0,*58
1507468043.45,23569,11.75,72972.8,-1.05,-3.27,-3.03,0,*59
1507468044.68,23570,11.75,72972.8,-1.05,-3.31,-3.07,0,*52
1507468045.9,23571,11.75,72970.5,-1.05,-3.39,-3.07,0,*5B
1507468047.1,23572,11.75,72968.5,-1.07,-3.35,-3.23,0,*50
1507468048.35,23573,11.75,72972.0,-1.05,-3.43,-3.27,0,*56
1507468049.57,23574,11.75,72972.8,-1.05,-3.27,-3.15,0,*52
1507468050.77,23575,11.75,72976.3,-1.07,-3.31,-3.15,0,*56
1507468051.99,23576,11.75,72978.0,-1.05,-3.31,-3.07,0,*54
1507468053.21,23577,11.75,72974.5,-1.05,-3.27,-3.03,0,*56
1507468054.44,23578,11.75,72972.5,-1.07,-3.59,-3.35,0,*57
1507468055.69,23579,11.75,72974.0,-1.07,-3.59,-3.43,0,*57
1507468056.92,23580,11.75,72972.3,-1.07,-3.51,-3.35,0,*58
1507468058.15,23581,11.75,72968.8,-1.07,-3.51,-3.35,0,*59
1507468059.36,23582,11.75,72964.3,-1.05,-3.39,-3.19,0,*58
1507468060.59,23583,11.75,72966.5,-1.07,-3.47,-3.35,0,*5C
1507468061.84,23584,11.75,72972.0,-1.07,-3.71,-3.43,0,*5F
1507468063.09,23585,11.75,72974.8,-1.07,-3.63,-3.43,0,*5D
1507468064.31,23586,11.75,72972.0,-1.07,-3.51,-3.31,0,*5A
1507468065.56,23587,11.75,72966.3,-1.07,-3.63,-3.47,0,*5B
1507468066.78,23588,11.75,72958.5,-1.11,-4.01,-3.83,0,*58
1507468067.98,23589,11.75,72962.0,-1.11,-4.25,-4.09,0,*5A
1507468069.18,23590,11.75,72964.0,-1.11,-4.13,-3.95,0,*55
1507468070.44,23591,11.75,72966.0,-1.13,-4.01,-3.79,0,*57
1507468071.66,23592,11.75,72962.3,-1.13,-4.17,-3.91,0,*55
1507468072.89,23593,11.75,72960.8,-1.13,-4.29,-4.13,0,*54
1507468074.11,23594,11.75,72958.8,-1.13,-4.37,-4.13,0,*5C
1507468075.31,23595,11.75,72962.0,-1.15,-4.17,-3.91,0,*54
1507468076.54,23596,11.75,72958.3,-1.15,-3.79,-3.55,0,*50
1507468077.78,23597,11.75,72962.0,-1.15,-3.67,-3.47,0,*5D
1507468079.03,23598,11.75,72960.0,-1.13,-3.67,-3.39,0,*5D
1507468080.24,23599,11.75,72956.3,-1.17,-3.55,-3.31,0,*51
1507468081.47,23600,11.75,72952.5,-1.15,-3.47,-3.27,0,*54
1507468082.69,23601,11.75,72954.8,-1.15,-3.51,-3.23,0,*56
1507468083.91,23602,11.75,72956.3,-1.15,-3.47,-3.23,0,*52
1507468085.15,23603,11.75,72954.0,-1.15,-3.67,-3.47,0,*53
1507468086.42,23604,11.75,72954.8,-1.13,-3.63,-3.47,0,*56
1507468087.69,23605,11.75,72956.0,-1.13,-3.67,-3.51,0,*54
1507468088.94,23606,11.75,72958.0,-1.13,-3.67,-3.39,0,*59
1507468090.19,23607,11.75,72958.8,-1.13,-3.51,-3.35,0,*51
1507468091.44,23608,11.75,72952.0,-1.13,-3.47,-3.27,0,*5A
1507468092.69,23609,11.75,72956.3,-1.13,-3.79,-3.55,0,*53
1507468093.94,23610,11.75,72954.0,-1.13,-3.67,-3.39,0,*5E
1507468095.21,23611,11.75,72952.3,-1.13,-3.63,-3.43,0,*56
1507468096.46,23612,11.75,72954.5,-1.13,-3.75,-3.55,0,*55
1507468097.71,23613,11.75,72954.5,-1.13,-3.87,-3.63,0,*5C
1507468098.93,23614,11.75,72948.5,-1.13,-4.25,-4.05,0,*53
1507468100.16,23615,11.75,72952.8,-1.13,-4.29,-4.13,0,*59
1507468101.39,23616,11.75,72954.5,-1.13,-4.17,-3.79,0,*5C
1507468102.62,23617,11.75,72950.5,-1.15,-4.01,-3.75,0,*50
1507468103.81,23618,11.75,72944.8,-1.17,-4.09,-3.79,0,*59
1507468105.01,23619,11.75,72948.5,-1.15,-4.05,-3.87,0,*57
1507468106.22,23620,11.75,72940.3,-1.17,-3.83,-3.67,0,*58
1507468107.41,23621,11.75,72942.5,-1.17,-4.17,-3.83,0,*59